Find Kosmos-417

NORAD ID: 5216 Int'l Des: 1971-041 Owner: OKB10 Country: SU operational
LEOCIRCULAR

当前视图

正在加载3D地球...

关于 Kosmos-417

正在加载描述...

即将过境

Passes for default location (London). Set your location on the main map for personalized predictions.

高度历史

Loading altitude history...

两行轨道根数

1 5216U 71041G 26151.39009655 -.00000027 00000-0 -56763-4 0 9991
2 5216 74.0130 126.2520 0096193 223.5251 304.5005 12.61455200535654
Epoch: May 31, 2026 • Age: 11 hours

当前状态

高度 1384.3 km
速度 7.18 km/s
星下点 19.38°N, 99.34°E
类型 other

Most Searched